Raleigh, NC

8:57 PM EST on February 06, 2016 (GMT -0500)
Raleigh-Durham International

Weather History for KRDU - February, 2012

Change the Weather History Date:

Saturday, February 18, 2012

  Actual Average Record
Temperature  
Mean Temperature 53 °F 45 °F  
Max Temperature 65 °F 56 °F 78 °F (2011)
Min Temperature 40 °F 34 °F 7 °F (1958)
Degree Days  
Heating Degree Days 12 20  
Month to date heating degree days 348 387  
Since 1 July heating degree days 1975 2384  
Cooling Degree Days 0 0  
Month to date cooling degree days 0 0  
Year to date cooling degree days 0 0  
Growing Degree Days 2 (Base 50)    
Moisture  
Dew Point 35 °F    
Average Humidity 55    
Maximum Humidity 79    
Minimum Humidity 30    
Precipitation  
Precipitation 0.00 in 0.11 in 1.16 in (1979)
Month to date precipitation 0.65 2.01  
Year to date precipitation 2.61 5.51  
Snow  
Snow 0.00 in 0.00 in 10.30 in (1979)
Month to date snowfall 0.0 1.3  
Since 1 July snowfall 0.0 4.9  
Snow Depth 0.00 in    
Sea Level Pressure  
Sea Level Pressure 30.05 in    
Wind  
Wind Speed 2 mph (SW)    
Max Wind Speed 15 mph    
Max Gust Speed 20 mph    
Visibility 10 miles    
Events      
T = Trace of Precipitation, MM = Missing Value Source: NWS Daily Summary

Daily Weather History Graph

Daily Weather History Graph

Search for Another Location

Airport or City:

Trip Planner

Search our weather history database for the weather conditions in past years. The results will help you decide how hot, cold, wet, or windy it might be!

Date:

Astronomy

Feb. 18, 2012 Rise Set
Actual Time 6:59 AM EST 5:59 PM EST
Civil Twilight 6:33 AM EST 6:25 PM EST
Nautical Twilight 6:03 AM EST 6:55 PM EST
Astronomical Twilight 5:33 AM EST 7:24 PM EST
Moon 4:32 AM EST (2/18) 2:58 PM EST (2/18)
Length of Visible Light 11h 51m
Length of Day
10h 59m
Waning Crescent, 11% of the Moon is Illuminated
Feb 18
Waning Crescent
Feb 21
New
Feb 29
First Quarter
Mar 8
Full
Mar 14
Last Quarter

Hourly Weather History & Observations

Time (EST) Temp. Dew Point Humidity Pressure Visibility Wind Dir Wind Speed Gust Speed Precip Events Conditions
12:51 AM 46.0 °F 37.9 °F 73% 30.11 in 10.0 mi Calm Calm - N/A   Mostly Cloudy
1:51 AM 46.0 °F 37.0 °F 71% 30.10 in 10.0 mi Calm Calm - N/A   Mostly Cloudy
2:51 AM 46.4 °F 33.8 °F 62% 30.10 in 10.0 mi Calm Calm - N/A   Mostly Cloudy
3:51 AM 48.0 °F 28.9 °F 48% 30.09 in 10.0 mi NNE 5.8 mph - N/A   Mostly Cloudy
4:51 AM 46.0 °F 28.9 °F 51% 30.09 in 10.0 mi Calm Calm - N/A   Mostly Cloudy
5:51 AM 44.1 °F 30.0 °F 58% 30.12 in 10.0 mi Calm Calm - N/A   Mostly Cloudy
6:51 AM 41.0 °F 30.9 °F 67% 30.13 in 10.0 mi Calm Calm - N/A   Mostly Cloudy
7:51 AM 39.9 °F 33.1 °F 77% 30.12 in 10.0 mi Calm Calm - N/A   Scattered Clouds
8:51 AM 48.9 °F 32.0 °F 52% 30.14 in 10.0 mi Calm Calm - N/A   Scattered Clouds
9:51 AM 53.1 °F 28.9 °F 40% 30.12 in 10.0 mi ENE 4.6 mph - N/A   Scattered Clouds
10:51 AM 57.0 °F 30.9 °F 37% 30.11 in 10.0 mi Variable 3.5 mph - N/A   Partly Cloudy
11:51 AM 59.0 °F 30.9 °F 35% 30.09 in 10.0 mi Calm Calm - N/A   Partly Cloudy
12:51 PM 62.1 °F 30.9 °F 31% 30.06 in 10.0 mi SSW 5.8 mph - N/A   Scattered Clouds
1:51 PM 64.0 °F 33.1 °F 31% 30.01 in 10.0 mi SW 10.4 mph - N/A   Scattered Clouds
2:51 PM 64.9 °F 35.1 °F 33% 29.98 in 10.0 mi SW 10.4 mph - N/A   Mostly Cloudy
3:51 PM 64.4 °F 37.4 °F 37% 30.00 in 10.0 mi WSW 6.9 mph - N/A   Overcast
4:51 PM 62.1 °F 37.0 °F 39% 30.00 in 10.0 mi SW 6.9 mph - N/A   Overcast
5:51 PM 60.1 °F 37.0 °F 42% 29.97 in 10.0 mi SSW 4.6 mph - N/A   Mostly Cloudy
6:51 PM 57.0 °F 39.0 °F 51% 29.97 in 10.0 mi Calm Calm - N/A   Overcast
7:51 PM 55.0 °F 39.9 °F 57% 29.98 in 10.0 mi Calm Calm - N/A   Overcast
8:51 PM 53.1 °F 39.9 °F 61% 29.99 in 10.0 mi Calm Calm - N/A   Overcast
9:51 PM 54.0 °F 39.9 °F 59% 30.01 in 10.0 mi Calm Calm - N/A   Overcast
10:51 PM 53.1 °F 39.9 °F 61% 30.00 in 10.0 mi Calm Calm - N/A   Overcast
11:51 PM 51.1 °F 42.1 °F 71% 29.97 in 10.0 mi Calm Calm - N/A   Overcast